#timestamp,LO_Frequency,Hit,StdDev 
1514502015.1,286046998.5,N
1514502035.9,286046998.2,N
1514502055.7,286046998.1,N
1514502075.5,286047000.6,N
1514502095.4,286047004.4,Y
1514502115.2,286047001.6,P
1514502135.0,286047003.6,N
1514502135.9,286047003.6,N
1514502155.8,286047001.6,N
1514502175.6,286047000.8,N
1514502195.5,286047000.5,N
1514502215.3,286046999.8,N
1514502235.1,286046999.8,N
1514502255.9,286047001.2,N
1514502275.7,286046999.7,N
1514502295.6,286047000.6,N
1514502315.4,286046998.6,N
1514502335.2,286047000.7,N
1514502355.1,286047000.8,N
1514502356.0,286047000.8,N
1514502375.8,286046999.0,N
1514502395.6,286047000.6,N
1514502415.5,286047002.5,N
1514502435.3,286047002.2,N
1514502455.2,286047001.6,N
1514502475.9,286047000.0,N
1514502495.7,286047001.1,N
1514502515.6,286046996.6,N
1514502535.4,286046997.2,N
1514502555.2,286046999.5,N
1514502575.1,286047001.0,N
1514502576.0,286047001.0,N
1514502595.8,286047001.0,N
1514502615.7,286047001.7,N
1514502635.5,286047001.8,N
1514502655.3,286047001.7,N
1514502675.2,286047001.8,N
1514502695.0,286047001.9,N
1514502695.9,286047001.9,N
1514502715.8,286047002.7,N
1514502735.6,286047000.6,N
1514502755.4,286047000.6,N
1514502775.3,286047000.2,N
1514502795.1,286047000.1,N
1514502815.9,286047003.1,N
1514502835.7,286047002.9,N
1514502855.5,286047003.7,N
1514502875.4,286047006.0,Y
1514502895.2,286047003.6,P
1514502915.0,286047004.1,P
1514502916.0,286047004.1,P
1514502935.8,286047003.4,N
1514502955.6,286047003.0,N
1514502975.5,286047003.7,Y
1514502995.3,286047001.7,P
1514503015.1,286046999.9,N
1514503035.9,286046999.7,N
1514503055.7,286046999.7,N
1514503075.6,286046999.8,N
1514503095.4,286047000.3,N
1514503115.2,286047002.6,N
1514503135.1,286047002.8,N
1514503136.0,286047002.8,N
1514503155.8,286047000.6,N
1514503175.7,286046996.5,N
1514503195.5,286046995.8,N
1514503215.3,286046995.2,N
1514503235.2,286046995.6,N
1514503255.0,286046995.2,N
1514503255.9,286046995.2,N
1514503275.8,286046995.0,N
1514503295.6,286046998.8,N
1514503315.4,286046996.8,N
1514503335.3,286046999.1,N
1514503355.1,286046999.3,N
1514503375.8,286046998.2,N
1514503395.7,286046999.0,N
1514503415.5,286046999.3,N
1514503435.4,286046999.0,N
1514503455.2,286046998.8,N
1514503475.0,286046997.5,N
1514503475.9,286046997.5,N
1514503495.8,286046999.0,N
1514503515.6,286046995.2,N
1514503535.5,286046997.4,N
1514503555.3,286046996.8,N
1514503575.1,286046996.4,N
1514503595.9,286046995.6,N
1514503615.7,286046995.0,N
1514503635.5,286046996.6,N
1514503655.4,286046996.5,N
1514503675.2,286046996.8,N
1514503695.1,286046996.6,N
1514503696.0,286046996.6,N
1514503715.8,286047000.5,N
1514503735.6,286047002.6,N
1514503755.5,286047004.1,N
1514503775.3,286046998.4,N
1514503795.2,286046997.9,N
1514503815.9,286046999.4,N
1514503835.7,286047001.7,N
1514503855.6,286047001.1,N
1514503875.4,286047000.3,N
1514503895.3,286047001.9,N
1514503915.1,286047002.3,N
1514503916.0,286047002.3,N
1514503935.8,286047002.3,N
1514503955.7,286047002.5,N
1514503975.5,286047002.6,N
1514503995.4,286047002.7,N
1514504015.2,286046999.8,N
1514504035.0,286047002.4,N
1514504035.9,286047002.4,N
1514504055.8,286047002.7,N
1514504075.6,286047000.5,N
1514504095.4,286047002.3,N
1514504115.3,286047000.1,N
1514504135.1,286047000.9,N
1514504155.9,286046998.8,N
1514504175.7,286046998.4,N
1514504195.5,286046998.3,N
1514504215.4,286046999.4,N
1514504235.2,286046997.6,N
1514504255.1,286046999.3,N
1514504256.0,286046999.3,N
1514504275.8,286046997.7,N
1514504295.6,286046997.2,N
1514504315.5,286046997.1,N
1514504335.3,286046995.4,N
1514504355.1,286046997.4,N
1514504375.9,286046993.7,Y
1514504395.7,286046993.9,P
1514504415.6,286046995.7,N
1514504435.4,286046995.4,N
1514504455.2,286046998.9,N
1514504475.1,286046999.2,N
1514504476.0,286046999.2,N
1514504495.8,286046998.2,N
1514504515.7,286046999.4,N
1514504535.5,286047000.7,N
1514504555.3,286046997.1,N
1514504575.2,286046998.1,N
1514504595.0,286046999.3,N
1514504595.9,286046999.3,N
1514504615.8,286046998.2,N
1514504635.6,286046998.2,N
1514504655.4,286046999.5,N
1514504675.3,286046997.4,N
1514504695.1,286046999.2,N
1514504715.8,286046998.6,N
1514504735.7,286046998.1,N
1514504755.5,286047000.2,N
1514504775.4,286046998.5,N
1514504795.2,286046998.7,N
1514504815.0,286046999.3,N
1514504815.9,286046999.3,N
1514504835.8,286046998.7,N
1514504855.6,286047000.1,N
1514504875.5,286046999.8,N
1514504895.3,286047000.2,N
1514504915.1,286046996.7,N
1514504935.9,286046996.1,N
1514504955.7,286046993.4,Y
1514504975.5,286046995.3,P
1514504995.4,286046998.0,N
1514505015.2,286046994.9,P
1514505035.1,286046995.2,N
1514505036.0,286046995.2,Y
1514505055.8,286047000.5,P
1514505075.6,286047000.5,N
1514505095.5,286047000.0,N
1514505115.3,286047000.1,N
1514505135.2,286047000.0,N
1514505155.9,286047000.5,N
1514505175.7,286047002.7,N
1514505195.6,286047002.2,N
1514505215.4,286046999.4,N
1514505235.2,286046999.8,N
1514505255.1,286047001.3,N
1514505256.0,286047001.3,N
1514505275.8,286047003.2,N
1514505295.7,286047002.9,N
1514505315.5,286047002.9,N
1514505335.3,286047005.4,Y
1514505355.2,286047003.8,P
1514505375.0,286047001.7,N
1514505375.9,286047001.7,N
1514505395.8,286047002.3,N
1514505415.6,286047002.2,N
1514505435.4,286047002.8,Y
1514505455.3,286047000.0,P
1514505475.1,286047003.6,P
1514505495.9,286047001.6,N
1514505515.7,286047000.6,N
1514505535.5,286047001.2,N
1514505555.4,286046998.1,N
1514505575.2,286046999.3,N
1514505595.1,286046997.7,N
1514505596.0,286046997.7,N
